TIME,DELAY(SENSOR),PRES,OXYGEN,RAWTEMP,T(OPTODE),TCPHASE,FLUOR,BETA(BETA700),BETA(BETA412),BETA(BETA440),CDOM,C(CSC),ED(ED411.90),ED(ED443.80),ED(ED489.40),ED(ED554.70),LU(LU412.20),LU(LU443.80),LU(LU489.40),LU(LU555.00),COMP,TILTX,TILTY,CHECK
1373235421,5807,834.3800048828125000,142.8648986816406200,404.6583862304687500,10.4606599807739260,40.4332389831543000,52,98,84,77,78,10151,2146960457,2147517293,2147287835,2147490011,2147086537,2146925220,2147694281,2147125001,1269,-1,8,12813
1373239017,5804,954.9699707031250000,157.9815979003906200,486.0656127929687500,7.9611592292785645,40.5553207397460940,53,107,86,78,78,10144,2146960201,2147517412,2147296777,2147505901,2147085275,2146921033,2147709037,2147120777,1981,-1,8,51984
1373242617,5808,975.0200195312500000,155.2548065185547000,500.9202880859375000,7.5009369850158690,41.0203208923339840,53,105,87,88,78,10141,2146964251,2147518893,2147296201,2147511296,2147087945,2146922249,2147714285,2147122176,4,0,8,16306
1373246217,5809,981.6400146484375000,158.4089965820312500,501.9728088378906000,7.4682769775390625,40.7944297790527340,53,108,89,79,78,10135,2146965504,2147519661,2147296237,2147513517,2147085376,2146918848,2147711524,2147122075,3579,-1,8,9356
1373249817,5803,980.7299804687500000,152.8242034912109400,502.4006042480469000,7.4549989700317380,41.2359199523925800,52,106,85,77,79,10140,2146961883,2147522532,2147295789,2147511213,2147084992,2146919588,2147718820,2147123346,3331,-1,8,40450
1373253417,5810,980.9500122070312000,170.3002014160156200,504.1437072753906000,7.4008817672729490,39.9501800537109400,52,105,86,78,79,10138,2146960009,2147518134,2147297929,2147515602,2147083812,2146919241,2147714925,2147121298,32,-1,8,33315
1373257017,5806,980.0300292968750000,167.3674011230468800,506.6372985839844000,7.3234300613403320,40.2061386108398440,52,107,86,78,77,10137,2146963419,2147517568,2147296457,2147513947,2147086930,2146924553,2147713453,2147122249,3264,-1,8,51841
1373260617,5806,978.3400268554688000,168.5930938720703000,508.8403015136719000,7.2549691200256350,40.1557884216308600,52,125,89,79,78,10138,2146963766,2147519195,2147298221,2147513865,2147086134,2146919926,2147717568,2147122148,2875,-1,8,32475
1373264217,5804,979.4199829101562000,179.0057067871093800,509.1382141113281000,7.2457079887390140,39.4261283874511700,53,105,86,77,79,10136,2146959899,2147519104,2147297563,2147511762,2147083739,2146917421,2147713380,2147121325,3145,-1,8,55156
1373267817,5806,977.2299804687500000,170.5933074951172000,510.1458129882812500,7.2143840789794920,40.0339584350585940,52,105,86,79,79,10134,2146960310,2147520393,2147295899,2147512429,2147087808,2146919067,2147712978,2147121508,3084,-1,8,51255
1373271417,5807,979.4799804687500000,186.4967041015625000,509.8532104492187500,7.2234802246093750,38.9344787597656250,53,105,86,78,79,10109,2146963657,2147519506,2147295360,2147513161,2147086921,2146920338,2147717632,2147123410,3203,-1,8,32352
1373275017,5806,980.6199951171875000,181.3361053466797000,510.1224060058594000,7.2151088714599610,39.2834587097168000,52,105,86,79,79,10113,2146965028,2147517732,2147297910,2147513764,2147085732,2146918464,2147718226,2147123702,3212,-1,8,13338
1373278617,5806,978.2700195312500000,185.5912017822265600,510.0762939453125000,7.2165431976318360,38.9973983764648440,53,108,87,80,78,10111,2146965522,2147518793,2147299364,2147512960,2147087890,2146921764,2147714578,2147121609,3338,-1,8,10973
1373282217,5803,975.6099853515625000,187.5879058837890600,511.3357849121094000,7.1773791313171390,38.8873596191406250,52,103,85,77,79,10108,2146964141,2147520978,2147298148,2147513344,2147084635,2146918326,2147717165,2147121901,475,-1,8,21414
1373285817,5807,979.2299804687500000,180.2458038330078000,511.0603027343750000,7.1859450340271000,39.3750000000000000,52,112,86,77,78,10110,2146960749,2147519725,2147297398,2147515017,2147085321,2146921728,2147716123,2147118875,709,-1,8,39381
1373289417,5803,982.0599975585938000,186.1690063476562500,510.1158142089844000,7.2153139114379880,38.9599189758300800,52,108,85,78,78,10109,2146963053,2147521517,2147298852,2147514358,2147087990,2146921627,2147716745,2147122404,612,-1,8,12273
1373293017,5806,987.5200195312500000,169.7989959716797000,509.4508972167969000,7.2359871864318850,40.0790405273437500,53,106,85,78,79,10108,2146962861,2147517202,2147298578,2147515501,2147084882,2146923163,2147712886,2147122505,193,0,8,51560
1373296617,5805,989.3900146484375000,156.8601989746093800,506.8056030273437500,7.3182010650634770,40.9976997375488300,53,105,85,77,79,10106,2146958985,2147517686,2147301504,2147514505,2147088182,2146915785,2147713746,2147118866,3061,-1,8,31921
1373300217,5805,986.3900146484375000,147.7649993896484400,507.9605102539062500,7.2823138236999510,41.7356185913085940,52,105,84,77,79,10107,2146960402,2147520941,2147299190,2147510628,2147086592,2146926381,2147720000,2147119826,3561,-1,8,42017
1373303817,5806,986.1400146484375000,159.5467071533203000,509.4692077636719000,7.2354168891906740,40.8371086120605500,53,113,86,78,78,10106,2146961737,2147520530,2147295597,2147511753,2147087515,2146915035,2147717641,2147119533,3572,-1,8,60257
1373307417,5806,987.6799926757812000,168.8029022216797000,509.5783996582031000,7.2320241928100590,40.1524810791015600,52,107,87,79,79,10097,2146962240,2147524635,2147298861,2147512612,2147086546,2146914157,2147715785,2147122660,3139,-1,8,5730
1373311017,5805,988.7000122070312000,163.8368072509765600,510.1799926757812500,7.2133188247680660,40.5283088684082000,52,105,86,80,78,10096,2146961161,2147517476,2147296045,2147512877,2147087158,2146917074,2147714002,2147119451,3470,-1,8,34057
1373314617,5810,989.6599731445312000,165.6970977783203000,509.8479003906250000,7.2236461639404300,40.3849906921386700,52,104,85,78,78,10089,2146964160,2147519030,2147298971,2147514806,2147086390,2146919094,2147712594,2147123072,42,0,8,55324
1373318217,5806,987.4099731445312000,161.5420989990234400,510.3333129882812500,7.2085518836975100,40.7018814086914060,52,104,85,81,79,10091,2146961417,2147517449,2147297362,2147514633,2147086381,2146915684,2147715958,2147121325,113,0,8,2385
1373321817,5806,986.6699829101562000,164.4100036621093800,510.6315917968750000,7.1992778778076170,40.4933891296386700,52,106,86,79,78,10057,2146961462,2147520182,2147299702,2147511241,2147088301,2146920713,2147715492,2147125120,85,-1,8,52532
1373325417,5807,990.1599731445312000,170.6750030517578000,510.5918884277344000,7.2005090713500980,40.0357398986816400,51,106,86,76,79,10056,2146963739,2147516717,2147298477,2147516114,2147087332,2146919515,2147714084,2147120210,351,-1,8,13973
1373329017,5808,982.9000244140625000,168.8302001953125000,510.5806884765625000,7.2008571624755860,40.1678504943847660,51,110,84,78,79,10060,2146961124,2147517961,2147295250,2147513353,2147084708,2146920813,2147713179,2147121545,369,-1,8,4615
1373332617,5808,986.1599731445312000,173.5375061035156200,510.4363098144531000,7.2053499221801760,39.8288993835449200,52,99,84,76,78,10056,2146962148,2147518756,2147296905,2147510061,2147084626,2146916800,2147715126,2147120649,193,0,8,24903
1373336217,5807,982.4799804687500000,191.8352966308593800,510.6458129882812500,7.1988358497619630,38.6001281738281250,52,100,86,76,79,10057,2146958528,2147518500,2147297289,2147513005,2147086473,2146918500,2147716169,2147123876,2954,-1,8,53655
1373339817,5802,980.1099853515625000,193.6746978759765600,510.7420959472656000,7.1958398818969730,38.4833793640136700,53,101,85,77,79,10058,2146963629,2147518720,2147300196,2147511725,2147087990,2146922733,2147716352,2147123318,2879,-1,8,5219
1373343417,5804,984.6500244140625000,195.1665954589843800,509.9708862304687500,7.2198209762573240,38.3749084472656250,52,102,86,76,78,10054,2146964086,2147522176,2147300525,2147509101,2147083858,2146918637,2147714605,2147119122,2901,-1,8,20695
1373347017,5810,985.4500122070312000,192.6204071044922000,509.9321899414062500,7.2210249900817870,38.5365600585937500,52,102,86,76,79,10045,2146963629,2147517440,2147297051,2147512374,2147084297,2146917860,2147713600,2147124992,2667,-1,8,34320
1373350617,5804,984.2299804687500000,193.7104949951172000,510.8355102539062500,7.1929368972778320,38.4828300476074200,52,111,84,76,79,10044,2146959552,2147518893,2147297910,2147512082,2147085979,2146923547,2147712557,2147121728,3380,-1,8,13543
1373354217,5803,984.7299804687500000,196.0424041748047000,509.8229064941406000,7.2244219779968260,38.3175010681152340,53,101,86,79,78,10045,2146960749,2147520722,2147296128,2147514432,2147083867,2146918628,2147714697,2147122706,3027,-1,8,39760
1373357817,5806,989.6500244140625000,192.5175933837890600,509.5892028808594000,7.2316880226135250,38.5369911193847660,52,101,84,80,78,10045,2146966317,2147518546,2147297883,2147512859,2147086281,2146914596,2147713088,2147122633,3461,-1,8,20728
1373361417,5808,989.2999877929688000,191.1401977539062500,509.5732116699219000,7.2321848869323730,38.6259117126464840,53,102,84,80,77,10045,2146960466,2147519744,2147297792,2147513188,2147087012,2146919378,2147716562,2147120768,2,-1,8,18338
1373365017,5805,990.1199951171875000,187.5233001708984400,509.6527099609375000,7.2297120094299320,38.8623085021972660,52,108,85,77,79,10040,2146962313,2147514916,2147296457,2147512137,2147087012,2146921481,2147713499,2147121426,3477,-1,8,56664
1373368617,5804,993.9000244140625000,192.0211944580078000,509.6669006347656000,7.2292728424072270,38.5711593627929700,53,104,87,77,79,9981,2146964845,2147518902,2147297572,2147511890,2147085842,2146920777,2147714898,2147121600,3301,-1,8,47982
1373372217,5803,989.7199707031250000,188.2530059814453000,509.6989135742187500,7.2282791137695310,38.8162117004394500,52,106,87,77,79,9976,2146964068,2147518418,2147295780,2147509750,2147089645,2146917641,2147715291,2147123428,3555,-1,8,28038
1373375817,5802,991.8400268554688000,195.9414062500000000,509.8218078613281000,7.2244558334350590,38.3237800598144500,52,104,85,76,79,9980,2146962779,2147516608,2147298029,2147512457,2147087844,2146920896,2147713362,2147120594,3379,-1,8,14684
1373378455,5807,995.5499877929688000,187.1938018798828000,509.4284057617187500,7.2366871833801270,38.8804893493652340,52,104,85,77,78,10082,2146964096,2147522240,2147298066,2147511862,2147086592,2146922532,2147712082,2147122468,3401,-1,8,359
